Location: Makanda
(37.6176°N, 89.2090°W)
Time: 19:27:52
(UTC+00:00)

Cosmos 1420 Rocket - Pass Details

Date: 23 September 2019
Orbit: 754 x 781 km, 74.0° (Epoch: 22 October)

Event Time Altitude Azimuth Distance (km) Brightness Sun altitude
Rises 01:47:40 0° 201° (SSW) 3,236 7.3 -22.9°
Reaches altitude 10° 01:50:02 10° 203° (SSW) 2,316 6.5 -23.4°
Maximum altitude 01:55:18 74° 289° (WNW) 812 4.1 -24.4°
Drops below altitude 10° 02:00:37 10° 14° (NNE) 2,341 6.6 -25.3°
Sets 02:03:02 0° 17° (NNE) 3,273 7.3 -25.8°
